Location: ????????
(44.2084°N, 135.1692°E)
Time: 14:06:51
(UTC+00:00)

Daily predictions for brighter satellites

Satellite Brightness Start Highest point End
(mag) Time Altitude Azimuth Time Altitude Azimuth Time Altitude Azimuth
CZ-4 R/B 3.9 12:01:16 10° SW 12:03:17 14° W 12:05:18 10° WNW
CZ-4B R/B 2.7 12:05:03 44° ESE 12:05:35 49° ENE 12:08:51 10° N
MOS 1-B 4.5 12:03:56 20° S 12:08:06 74° WSW 12:13:55 10° NNW
Cosmos 1782 2.3 12:09:48 44° S 12:10:49 80° E 12:14:21 10° N
Cosmos 2233 Rocket 3.9 12:08:45 21° S 12:13:05 71° E 12:19:16 10° NNE
Ariane Rocket 3.2 12:12:01 33° SE 12:14:02 56° ENE 12:18:58 10° N
Cosmos 2369 4.3 12:08:54 10° NNW 12:14:25 46° ENE 12:16:52 29° ESE
SL-08 R/B 4.4 12:10:00 16° S 12:15:04 84° E 12:21:27 10° N
Cosmos 1607 3.8 12:09:40 10° SSW 12:15:43 66° ESE 12:21:54 10° NE
Cosmos 2082 Rocket 2.2 12:12:23 20° S 12:16:19 59° ESE 12:21:56 10° NNE
Cosmos 2322 Rocket 4.4 12:13:45 10° N 12:16:54 15° NE 12:20:02 10° ENE
Cosmos 44 Rocket 3.6 12:12:44 10° SW 12:17:46 72° NW 12:22:57 10° NNE
Spot 2 Rocket 4.2 12:16:41 19° SSW 12:20:05 49° W 12:24:57 10° NNW
ATLAS 3B R/B 3.1 12:12:45 10° NW 12:20:24 64° WSW 12:24:34 27° SSE
Tsikada Rocket 3.9 12:15:25 10° N 12:21:37 78° E 12:24:41 32° SSE
CZ-4C R/B 2.3 12:18:38 10° SW 12:22:40 56° NW 12:27:49 10° NNE
Cosmos 1725 Rocket 4.3 12:17:30 10° SSW 12:23:45 68° W 12:30:00 10° N
BREEZE-M DEB (TANK) 3.8 12:23:52 10° WNW 12:27:18 63° SSW 12:30:42 31° SE
BREEZE-M DEB (TANK) 4.4 12:10:03 10° WSW 12:28:54 89° NW 12:34:19 10° ENE
USA 305 3.8 12:34:30 10° NW 12:38:10 32° NNE 12:38:58 29° NE
COSMOS 2406 3.6 12:37:43 40° SE 12:38:24 42° ESE 12:43:47 10° NE
Cosmos 1697 Rocket 4.2 12:35:14 10° NW 12:39:52 27° WSW 12:43:13 16° SSW
DELTA 2 R/B (1) 4.1 12:34:57 10° SW 12:39:20 38° S 12:39:20 38° S
NOSS 3-3 (A) 3.5 12:38:17 34° SSW 12:40:30 65° ESE 12:46:23 10° NE
Meteor 1-20 Rocket 4.4 12:36:33 10° N 12:42:00 55° ENE 12:43:25 43° ESE
SL-16 R/B 3.2 12:38:46 10° N 12:43:56 35° NE 12:45:49 28° E
CZ-2C R/B 3.3 12:45:27 38° NNW 12:45:27 38° NNW 12:47:19 10° NNW
Cosmos 1743 4.1 12:45:03 10° NW 12:47:27 22° W 12:47:43 21° W
Cosmos 1992 Rocket 3.9 12:46:09 48° S 12:47:32 71° ESE 12:52:43 10° NNE
ISS -3.1 12:45:32 10° WSW 12:48:49 55° NNW 12:49:09 52° N
Cosmos 2061 Rocket 4.1 12:45:24 25° SSW 12:49:13 74° W 12:55:30 10° N
Cosmos 2151 3.0 12:48:38 10° N 12:52:36 59° ENE 12:52:36 59° ENE
Okean O Rocket 3.7 12:51:18 14° SW 12:53:35 21° W 12:56:49 10° NW
Cosmos 1626 Rocket 3.3 12:50:30 10° N 12:54:51 90° NE 12:55:12 76° S
Cosmos 2333 Rocket 3.1 12:50:42 10° NNW 12:55:59 38° NE 12:57:39 31° E
Cosmos 2228 4.2 12:54:40 24° SW 12:56:31 37° WNW 13:00:22 10° N
Cosmos 1437 Rocket 3.6 12:58:59 37° NE 12:58:59 37° NE 13:01:21 10° NNE
SL-4 R/B 3.8 12:55:25 10° W 12:57:33 19° WSW 12:57:33 19° WSW
Meteor 1-25 Rocket 4.4 12:54:29 10° N 13:00:07 58° ENE 13:01:10 50° ESE
CZ-4B R/B 3.9 12:59:54 39° SW 13:01:06 48° W 13:05:44 10° NNW
Cosmos 909 Rocket 4.0 12:55:19 10° SW 13:01:43 83° WNW 13:08:09 10° NNE
Cosmos 1980 Rocket 3.2 13:02:51 10° NW 13:08:02 37° WSW 13:09:48 30° SW
NOSS 3-3 (C) 3.5 13:06:17 42° SSW 13:08:08 85° SE 13:14:14 10° NE
Cosmos 1464 Rocket 4.0 13:10:09 51° SE 13:11:10 58° E 13:17:11 10° NNE
BREEZE-M DEB 3.9 13:10:38 10° WSW 13:15:08 66° SSE 13:23:28 10° ENE
Cosmos 1513 Rocket 4.4 13:13:27 49° S 13:15:20 89° ESE 13:21:35 10° N
Helios 1A 3.7 13:11:44 10° NNE 13:14:29 40° NE 13:14:29 40° NE
Cosmos 2098 Rocket 3.3 13:22:23 75° ESE 13:22:31 76° E 13:27:18 10° NNE
Cosmos 1072 Rocket 4.4 13:24:54 58° S 13:26:12 82° E 13:32:31 10° N
Gbstr 26 Del rocket 4.2 13:27:55 10° WNW 13:30:58 33° W 13:30:58 33° W
Cosmos 2360 Rocket 2.9 13:29:13 10° NNW 13:34:37 43° ENE 13:35:37 40° E
Meteor 2-10 4.1 13:35:55 10° N 13:41:40 82° E 13:42:08 75° SE
USA 234 3.1 13:37:33 10° NE 13:44:07 76° SE 13:46:23 44° SW
Cosmos 2034 Rocket 3.9 13:44:06 63° SE 13:44:53 70° E 13:51:13 10° NNE
Cosmos 1428 Rocket 4.3 13:41:49 10° N 13:48:07 87° E 13:48:55 70° SSE
Cosmos 2219 Rocket 3.1 13:47:07 10° NNW 13:52:23 38° NE 13:53:26 35° E
ALOS 2 3.6 13:59:36 41° NE 13:59:36 41° NE 14:03:05 10° N
ARIANE 5 R/B 3.3 14:00:23 49° NE 14:00:23 49° NE 14:04:00 10° N
Helios 1B rocket 3.9 14:02:05 29° NNW 14:02:05 29° NNW 14:03:57 10° NNW
Cosmos 2082 Rocket 4.2 13:56:07 10° WSW 14:00:47 25° NW 14:05:28 10° N
Cosmos 2322 Rocket 2.1 13:56:16 10° NNW 14:01:56 74° ENE 14:02:10 73° E
Cosmos 540 Rocket 4.1 14:05:03 46° ENE 14:05:03 46° ENE 14:09:02 10° NNE
Cosmos 2058 Rocket 4.2 14:06:12 36° NE 14:06:12 36° NE 14:09:04 10° NNE
Cosmos 1825 Rocket 4.3 14:01:00 10° NNW 14:04:22 49° NW 14:04:22 49° NW
Cosmos 1953 Rocket 4.2 14:02:22 10° N 14:05:44 51° N 14:05:44 51° N
CZ-2C R/B 4.2 14:06:36 10° NNE 14:10:05 55° NNE 14:10:05 55° NNE
Cosmos 1634 Rocket 3.9 14:14:39 66° ESE 14:14:53 66° E 14:21:01 10° NNE
Cosmos 2279 Rocket 4.3 14:19:08 50° E 14:19:19 50° E 14:25:20 10° NNE
Nadezhda 4 Rocket 4.4 14:13:32 10° NNW 14:19:22 47° W 14:20:06 45° WSW
Cosmos 2278 3.9 14:14:58 10° NNW 14:20:20 57° W 14:20:20 57° W
Cosmos 1763 Rocket 3.6 14:26:18 76° N 14:26:18 76° N 14:31:12 10° NNE
CZ-2C R/B 3.9 14:22:00 10° NNE 14:27:04 44° E 14:27:04 44° E
SL-16 R/B 3.0 14:22:48 10° NW 14:27:39 38° W 14:27:39 38° W
Cosmos 1503 Rocket 4.2 14:23:17 10° NNW 14:27:52 66° NW 14:27:52 66° NW
Cosmos 1777 Rocket 4.4 14:24:07 10° NNW 14:28:36 53° WNW 14:28:36 53° WNW
Cosmos 990 Rocket 4.1 14:28:13 10° NNW 14:32:51 71° N 14:32:51 71° N
Meteor 2-6 Rocket 4.4 14:35:46 68° E 14:35:46 68° E 14:41:37 10° NNE
Meteor 2-2 Rocket 4.2 14:36:18 80° WNW 14:36:18 80° WNW 14:42:00 10° N
Cosmos 1354 Rocket 4.1 14:33:13 10° NNW 14:37:56 72° NNW 14:37:56 72° NNW
ARGOS Delta rocket 4.1 14:34:24 10° N 14:38:58 73° NNW 14:38:58 73° NNW
Cosmos 2333 Rocket 3.2 14:35:05 10° NW 14:39:39 35° W 14:39:39 35° W
Cosmos 2026 Rocket 4.3 14:37:59 10° NNW 14:44:10 55° W 14:44:40 54° WSW
Cosmos-2242 4.3 14:46:11 36° NNW 14:46:11 36° NNW 14:49:00 10° N
SeaSat 1 3.2 14:45:54 42° ENE 14:46:13 43° NE 14:50:51 10° NNW
Cosmos 1833 4.3 14:48:03 69° WNW 14:48:13 69° WNW 14:53:52 10° NNE
CZ-2C R/B 3.0 14:49:10 53° ENE 14:49:13 53° ENE 14:54:21 10° N
Cosmos 2266 Rocket 4.5 14:45:20 10° N 14:51:07 46° ENE 14:51:47 44° E
Cosmos 2297 Rocket 3.7 15:05:08 24° E 15:05:08 24° E 15:08:58 10° NE
Cosmos 2322 4.2 14:59:31 10° NNW 15:05:06 51° ENE 15:05:53 48° E
Cosmos 2221 3.7 15:08:31 40° NNE 15:08:31 40° NNE 15:11:15 10° N
Aureole 1 Rocket 3.7 15:06:00 10° NNW 15:11:26 79° W 15:11:26 79° W
NOSS 3-4 (A) 4.2 15:09:40 10° NW 15:16:23 50° WSW 15:16:25 50° WSW
NOSS 3-4 (C) 4.1 15:10:16 10° NW 15:17:00 50° WSW 15:17:05 50° WSW
Meteor 1-11 Rocket 3.8 15:11:25 10° N 15:17:07 66° ENE 15:17:16 66° E
Cosmos 2142 Rocket 4.3 15:16:50 77° SW 15:17:15 82° W 15:23:33 10° N
Cosmos 2180 Rocket 4.3 15:17:13 80° SW 15:17:34 85° W 15:23:53 10° N
Cosmos 2360 Rocket 3.5 15:13:31 10° NW 15:17:20 28° W 15:17:20 28° W
Meteor 1-10 Rocket 4.2 15:20:13 77° ESE 15:20:17 77° E 15:26:12 10° NNE
Cosmos 372 Rocket 4.2 15:20:13 10° NNW 15:24:30 61° NW 15:24:30 61° NW
Cosmos 1937 Rocket 3.8 15:20:23 10° NNW 15:25:29 57° ENE 15:25:30 57° ENE
USA 234 4.2 15:20:45 10° NE 15:26:52 44° NNW 15:32:59 10° W
Cosmos 44 3.6 15:21:44 10° NNW 15:26:53 75° NNE 15:26:53 75° NNE
Cosmos 1812 Rocket 4.4 15:29:06 49° N 15:29:06 49° N 15:32:23 10° N
Cosmos 2219 Rocket 3.3 15:31:10 10° NW 15:35:06 32° W 15:35:06 32° W
IDEFIX/ARIANE 42P 4.3 15:36:03 10° NE 15:39:55 21° E 15:40:34 20° ESE
Meteor 1-27 Rocket 3.7 15:40:51 72° ESE 15:41:08 74° E 15:46:57 10° NNE
GP-B 4.2 15:40:22 10° N 15:43:27 37° NW 15:43:27 37° NW
Cosmos 2322 Rocket 4.2 15:41:49 10° WNW 15:43:57 15° W 15:43:57 15° W
Lacrosse 4 Rocket 3.7 15:49:24 16° E 15:49:24 16° E 15:50:51 10° ENE
Cosmos 1898 Rocket 3.8 15:43:16 10° NNW 15:47:38 58° WNW 15:47:38 58° WNW
ACS3 Solar Sail 1.7 15:43:32 10° NNE 15:49:31 68° E 15:50:10 63° SE
RESURS DK-1 3.7 15:45:48 10° NNW 15:48:14 36° NNW 15:48:14 36° NNW
Meteor 2-4 Rocket 3.7 15:50:58 65° ESE 15:51:03 65° E 15:56:26 10° NNE
COSMOS 2428 2.6 15:53:18 10° NNW 15:58:48 71° W 15:58:48 71° W
Cosmos 2237 Rocket 2.7 15:57:44 10° NNW 16:03:21 55° ENE 16:05:26 36° ESE
ISS -1.2 16:05:12 19° ENE 16:05:12 19° ENE 16:06:36 10° ENE
Cosmos 1980 4.0 16:01:15 10° NNW 16:06:53 64° ENE 16:08:34 43° ESE
CZ-2C R/B 4.5 16:02:08 10° N 16:06:59 30° WNW 16:08:02 28° W
Iridium 4 Rocket 3.5 16:08:26 76° SSE 16:08:51 83° E 16:14:35 10° N
Cosmos 2227 Rocket 3.1 16:12:56 35° SE 16:13:44 36° ESE 16:18:52 10° NE
BlueWalker 3 4.5 16:20:19 12° E 16:20:19 12° E 16:20:46 10° E
Meteor 2-10 Rocket 3.7 16:14:00 10° N 16:19:27 73° ENE 16:20:33 56° SE
Meteor 2-11 Rocket 4.5 16:13:37 10° N 16:19:47 76° E 16:21:24 51° SSE
Cosmos 1553 Rocket 4.3 16:18:05 44° SSE 16:19:54 59° E 16:26:11 10° NNE
PSLV R/B 4.5 16:18:43 10° N 16:21:43 51° N 16:21:43 51° N
SeaSat 1 4.0 16:25:30 22° WNW 16:25:30 22° WNW 16:27:53 10° NW
Meteor 1-18 Rocket 4.2 16:28:45 60° SSE 16:29:42 76° E 16:35:18 10° NNE
CZ-2C R/B 4.2 16:30:36 20° WNW 16:30:36 20° WNW 16:33:41 10° NW
NOSS 0 Rocket 4.0 16:26:03 10° NW 16:32:02 54° WSW 16:32:21 54° WSW
Cosmos 1655 Rocket 4.0 16:26:09 10° NNW 16:32:16 61° W 16:33:16 54° SW
Cosmos 1758 4.0 16:31:04 10° N 16:34:13 44° ENE 16:34:13 44° ENE
Cosmos 2263 Rocket 3.3 16:33:42 29° SE 16:35:12 34° ESE 16:40:10 10° NE
Nimbus 7 Rocket 4.4 16:31:01 10° NNE 16:37:06 80° ESE 16:38:42 52° S
CZ-2D R/B 4.4 16:34:18 10° NE 16:37:44 17° E 16:41:11 10° SE
Cosmos 1408 Rocket 4.3 16:34:23 10° N 16:38:30 45° ENE 16:39:24 39° ESE
Cosmos 1238 Rocket 4.4 16:40:24 24° NW 16:40:24 24° NW 16:42:45 10° NNW
Spot 1 4.3 16:36:13 10° N 16:40:42 63° WNW 16:40:52 62° W
MSX 3.8 16:37:23 10° NNE 16:43:11 75° ESE 16:44:47 49° S
SL-08 R/B 4.5 16:37:12 10° N 16:43:35 84° E 16:46:04 40° SSE
Cosmos 192 4.3 16:42:59 10° NNW 16:47:57 83° ENE 16:49:11 51° SSE
Cosmos 2297 Rocket 2.6 16:46:54 44° W 16:48:09 52° WNW 16:53:41 10° NNE
MINOTAUR IV R/B 4.4 16:48:12 74° SSE 16:48:26 78° ESE 16:52:56 10° NNE
Cosmos 1745 Rocket 4.5 16:46:41 10° N 16:52:43 56° ENE 16:57:01 19° SSE
ALOS 4.4 16:52:11 10° NE 16:55:28 19° E 16:58:14 12° SE
BREEZE-M DEB (TANK) 3.4 16:54:57 36° NW 16:55:57 58° NNE 17:02:25 10° ESE
Sich 1 3.1 16:53:03 10° NNW 16:56:50 59° WNW 16:56:50 59° WNW
Okean 3 Rocket 3.7 17:02:39 10° NNW 17:07:03 53° W 17:07:12 53° WSW
CZ-3 Stage 3 4.5 17:09:02 15° SSE 17:09:02 15° SSE 17:12:26 10° SE
Cosmos 1703 3.8 17:12:01 36° ESE 17:12:18 37° E 17:15:18 10° NNE
Cosmos 1417 Rocket 4.4 17:11:16 33° S 17:14:11 83° E 17:20:20 10° N
IDEFIX/ARIANE 42P 2.8 17:14:36 10° N 17:19:40 53° WNW 17:21:16 39° WSW
Cosmos 1500 Rocket 3.5 17:16:33 10° NNW 17:20:58 67° W 17:21:55 51° SSW
Lacrosse 4 Rocket 2.0 17:24:48 37° W 17:25:29 40° NW 17:29:19 10° NNE
Cosmos 2219 3.8 17:25:04 25° S 17:28:10 50° ESE 17:33:36 10° NE
Cosmos 1953 3.3 17:25:40 10° N 17:29:09 41° ENE 17:31:49 15° SE
SL-16 R/B 2.3 17:25:18 10° NNW 17:31:02 77° ENE 17:36:42 10° SSE
ACS3 Solar Sail 3.3 17:26:56 10° NNW 17:31:17 22° WNW 17:33:39 17° W
DMSP B5D2-2 4.2 17:26:39 13° SSE 17:31:20 74° ENE 17:36:32 10° N
Cosmos 1125 Rocket 3.5 17:30:00 10° NNW 17:35:20 88° ENE 17:40:36 10° SSE
ADEOS Rocket 3.6 17:28:57 10° N 17:36:40 67° WNW 17:41:09 26° SW
USA 281 3.2 17:30:22 10° SSE 17:36:57 88° WSW 17:43:33 10° NNW
Cosmos 1151 Rocket 3.7 17:37:03 34° WSW 17:37:50 37° WNW 17:41:51 10° N
Cosmos 2315 Rocket 4.1 17:33:58 23° S 17:38:14 85° E 17:44:37 10° N
CRYOSAT 2 4.3 17:37:44 26° S 17:40:34 82° W 17:45:28 10° N
ISS -3.9 17:38:19 18° WNW 17:40:44 81° SSW 17:44:05 10° SE
S3M 4.0 17:38:05 27° SSW 17:41:39 73° W 17:47:50 10° N
H-2A R/B 2.9 17:37:07 10° NNE 17:42:19 49° E 17:46:57 13° S
NOAA 11 4.2 17:41:31 10° N 17:46:55 66° WNW 17:49:53 27° SSW
Cosmos 2237 Rocket 3.3 17:42:36 10° NW 17:46:56 23° W 17:47:11 23° WSW
Cosmos 1805 Rocket 4.3 17:43:45 10° NNW 17:47:36 31° W 17:48:13 30° WSW
Cosmos 1666 Rocket 3.8 17:43:30 10° N 17:47:57 71° E 17:52:16 10° SSE
FENGYUN 3A 4.3 17:45:25 10° N 17:50:27 40° WNW 17:52:58 25° WSW
Cosmos 1743 Rocket 3.7 17:46:58 10° NNW 17:51:09 49° W 17:52:48 31° SSW
NOSS 2-2 (C) 4.0 17:52:59 23° S 17:54:25 34° ESE 17:57:16 10° NE
BlueWalker 3 1.9 17:53:57 34° W 17:55:17 62° NNW 17:58:49 10° NE
Resurs 1-4 Rocket 2.1 17:50:54 10° NNE 17:56:13 87° ESE 18:00:01 19° SSW
Cosmos 2227 Rocket 3.1 17:54:43 22° WSW 17:57:43 37° NW 18:02:58 10° NNE
Cosmos 773 Rocket 4.0 17:56:55 21° SSW 18:00:22 79° ESE 18:05:30 10° NNE
Cosmos 1340 Rocket 3.8 18:00:17 10° NW 18:03:30 26° W 18:03:58 25° WSW
ADEOS II 2.3 17:59:24 10° NNE 18:04:38 69° ESE 18:09:28 12° S
Meteor 1-21 4.4 18:02:53 11° S 18:08:20 74° E 18:13:57 10° NNE
Cosmos 1515 Rocket 4.5 18:05:46 10° SSE 18:10:00 48° E 18:14:16 10° NNE
Meteor 1-13 Rocket 4.3 18:08:50 19° SSW 18:12:53 63° WNW 18:18:31 10° N
MOZ.5/SAFIR/RUBIN 5/SL-8 4.5 18:12:07 21° SW 18:14:25 33° W 18:18:34 10° NNW
Cosmos 1709 Rocket 4.3 18:10:00 10° NNW 18:15:48 45° W 18:21:05 13° SSW
Tiangong -1.6 18:15:39 28° SW 18:16:46 41° SSE 18:19:44 10° E
USA 81 4.1 18:12:35 10° N 18:17:48 64° W 18:22:59 10° S
CZ-2D R/B 2.2 18:12:49 10° N 18:18:10 69° WNW 18:22:44 15° SSW
Cosmos 2263 Rocket 2.9 18:15:22 18° WSW 18:18:59 39° WNW 18:24:12 10° NNE
ARGOS 3.9 18:17:09 10° NNE 18:22:23 51° E 18:27:34 10° S
Cosmos 1943 3.4 18:17:22 10° NNW 18:23:00 76° ENE 18:28:36 10° SSE
Cosmos 1328 Rocket 4.0 18:22:16 18° SW 18:25:12 45° WNW 18:29:27 10° N
Meteor 1-16 Rocket 4.1 18:20:30 10° N 18:25:51 90° ENE 18:31:09 10° S
BREEZE-M DEB (TANK) 3.3 18:19:47 10° W 18:26:02 41° NNW 18:28:47 10° ENE
Envisat 3.6 18:24:02 10° N 18:28:45 40° WNW 18:32:33 15° SW
CENTAUR R/B 2.9 18:24:17 10° SSW 18:29:20 52° ESE 18:35:42 10° NE
H-2A R/B 2.5 18:27:03 12° S 18:30:08 41° W 18:33:32 10° NNW
IRIDIUM 106 4.5 18:26:52 10° N 18:32:08 79° E 18:37:20 10° S
ALOS 2.7 18:28:15 10° N 18:32:36 45° WNW 18:36:14 14° SW
Cosmos 2297 Rocket 4.5 18:31:56 10° NW 18:33:35 11° NW 18:35:14 10° NNW
Cosmos 1295 Rocket 4.5 18:28:33 10° N 18:34:52 86° W 18:41:03 10° S
Cosmos 2082 3.9 18:31:32 15° SW 18:36:15 58° WNW 18:41:49 10° NNE
H-2A R/B 3.2 18:33:55 10° NNE 18:37:38 38° E 18:41:21 10° SSE
Cosmos 2084 3.2 18:35:50 10° NW 18:39:57 83° SW 18:44:03 10° SE
Meteor 1-12 Rocket 4.3 18:35:52 10° N 18:41:37 90° NW 18:47:16 10° S
Cosmos 2154 Rocket 4.1 18:40:45 10° N 18:47:03 90° NW 18:53:16 10° S
Cosmos 2298 Rocket 4.0 18:44:39 10° NNW 18:49:57 69° WSW 18:55:13 10° S
Cosmos 1844 Rocket 2.7 18:46:51 10° SSW 18:52:28 86° ESE 18:58:05 10° NNE
Atlas Centaur 2 4.2 18:46:59 10° SW 18:53:15 25° SSE 18:59:29 10° ESE
AQUA 3.8 18:48:46 10° NNE 18:53:28 87° E 18:58:09 10° SSW
Cosmos 1470 Rocket 4.0 18:49:51 10° NNW 18:53:55 41° W 18:58:00 10° SSW
Cosmos 1400 Rocket 4.5 18:50:46 10° N 18:54:17 36° ENE 18:57:47 10° SE
Cosmos 2184 Rocket 4.0 18:51:17 10° NNW 18:57:26 70° W 19:03:32 10° S
Cosmos 2074 Rocket 4.0 18:51:59 10° NNW 18:58:13 67° W 19:04:23 10° S
Cosmos 1633 Rocket 4.2 18:55:39 10° NW 18:59:06 24° W 19:02:33 10° SW
NOSS 2-2 (E) 3.6 18:55:37 10° SSW 18:59:11 49° SE 19:02:11 10° NE
Okean 3 3.3 18:57:09 10° S 19:01:11 80° W 19:05:13 10° N
Cosmos 1933 Rocket 3.5 18:57:09 10° N 19:01:32 81° W 19:05:52 10° S
Okean 2 3.9 18:59:09 10° SW 19:02:43 37° WNW 19:06:18 10° N
Cosmos 1953 4.1 19:02:02 10° WNW 19:03:40 13° W 19:05:17 10° WSW
CZ-2C R/B 3.2 19:01:08 10° NNE 19:05:37 50° E 19:10:01 10° S
BREEZE-M DEB (TANK) 4.4 18:50:54 10° SW 19:07:25 56° SSE 19:11:38 10° ENE
Cosmos 1844 3.8 19:05:48 10° SSW 19:11:29 76° WNW 19:17:17 10° NNE
ATLAS 2AS CENTAUR R/B 2.7 19:05:34 10° NW 19:12:19 75° WSW 19:19:07 10° SSE
Cosmos 2219 4.4 19:07:45 10° WSW 19:12:33 28° NW 19:17:21 10° N
BREEZE-M DEB (TANK) 4.1 19:07:26 10° W 19:20:19 55° N 19:23:44 10° ENE
